SL-14 DEB, 45290

Orbit data source: Space-Track

SL-14 DEB, 45290 is space debris in LEO originally from a launch on Thu, 15 Aug 1991 UTC launched from the Plesetsk Missile And Space Complex (PKMTR). Debris objects in space refer to the collection of defunct objects orbiting the Earth. Examples of debris include non-operational satellites, rocket bodies, and fragments generated from explosions, collisions, or faulty payload assembly.

Loading next visibility...
Identifier
45290, 1991-056AC
Orbit
LEO
Last TLE update
23 hours ago
Origin
Manufacturer
Unknown
Mission
Spacecraft
Bus & Motor
Unknown
Mass
Unknown
Launch date (UTC)
1991-08-15 (34 years ago)
Launch vehicle
Unknown
Launch site
Plesetsk Missile And Space Complex (PKMTR)
Object type
Payload
Rocket body
Debris
Shape & HBR
Unknown
Radar Cross Section
Small (<0.1 m²)

Expand to show TLE details & history

TLE from 23 hours ago
0 SL-14 DEB
1 45290U 91056AC  25187.90744148  .00002702  00000-0  47293-2 0  9999
2 45290  82.6330 353.8197 0106812  93.6761 267.6597 13.40670399262127
Epoch: 2025-07-06T21:46Z
TLE epoch observation values (Epoch: 2025-07-06T21:46:42.943Z)
Latitude
-0.00003°
Longitude
102.01637°
Altitude
1,113.744 km
Speed
7.294 km/s
True Right ascension
23h 35m 16s
True Declination
0° 00' 00"
Sunlit
Object was in daylight at epoch
Visualization orbit readout
Latitude
-78.9731°
Longitude
60.01114°
Altitude
1,214.048 km
Speed
7.208 km/s
Apparent Right ascension
20h 43m 50s
Apparent Declination
-61° 04' 42"
Sunlit
Object is in partial shadow
Visualization observer readout
Local Sidereal Time
08:42:49
Azimuth
180.34° SSW
Elevation
-68.837°
Doppler factor
1
Orbital elements
Apogee altitude
1,183.909 km
Perigee altitude
1,024.073 km
Semi-major axis
7,482.128 km
Eccentricity
0.01068
Inclination
82.633°
RAAN
353.8197°
Arg. of periapsis
93.6761°
True anomaly
Unknown
Mean anomaly
267.6597°
Eccentric anomaly
Unknown
Mean motion
3.35356 °/min
Orbital period
107.35 mins
BSTAR
0.0047293
Loading maneuver chart data...
Loading SW <> Apogee altitude chart data...
Loading historical data...
Loading historical data...
Loading historical data...
Loading historical data...
Loading historical data...
Loading historical data...
Loading historical data...

SL-14 DEB Visibility forecast

Observer location: undefined°, undefined°

Span
Click to sort rows by Start time (UTC) header in descending order
Start Az.
Max El. time (UTC)
Max El. Az.
Max El.
End time (UTC)
End Az.
9 mins2025-07-07 21:39:03.022Z21.153° NNE2025-07-07 21:44:03.022Z73.737° E21.473°2025-07-07 21:48:03.022Z115.776° SE
10 mins2025-07-07 23:28:03.022Z337.266° NNW2025-07-07 23:32:03.022Z280.077° WNW38.985°2025-07-07 23:38:03.022Z194.788° SSW
11 mins2025-07-08 11:30:03.022Z175.293° S2025-07-08 11:35:03.022Z115.596° SE43.338°2025-07-08 11:41:03.022Z12.69° NNE
7 mins2025-07-08 13:21:03.022Z260.028° W2025-07-08 13:24:03.022Z290.309° WNW16.866°2025-07-08 13:28:03.022Z330.15° NNW
|